User: anonymous   Login
Location: Arborea
(39.7744°N, 8.5819°E)
Time: 06:09:12
(UTC+00:00)
Language:

H-2A R/B - Orbit

View from above orbital plane
View from above orbital plane
View from above satellite
View from above satellite

Ground track
Ground track

The orbit data is extracted from the following two-line orbital elements,

1 38341U 12025E   22024.57337070  .00000449  00000-0  59534-4 0  9998
2 38341  98.5179 230.1651 0055713 148.2226 212.2368 14.84404428524301
Epoch (UTC): 24 January 2022 13:45:39
Eccentricity: 0.0055713
inclination: 98.5179°
perigee height: 576 km
apogee height: 654 km
right ascension of ascending node: 230.1651°
argument of perigee: 148.2226°
revolutions per day: 14.84404428
mean anomaly at epoch: 212.2368°
orbit number at epoch: 52430

The dashed part of the orbit path shows where the satellite is in the earth's shadow,  

DLR